Starlink 6140

operational
NORAD ID: 57111 Int'l Des: 2023-090 Owner: SPXS Country: US Constellation: starlink
LEOCIRCULAR

About Starlink 6140

Description loading...

Live Position

Loading 3D Globe...

Upcoming Passes

Altitude History

Altitude vs Time

uPlot chart will show altitude changes over time

Two-Line Element Set

1 57111U 23090L 26037.17827171 .00000394 00000-0 44244-4 0 9999
2 57111 43.0020 85.8396 0000727 211.0667 149.0132 15.02540302145679
Epoch: Feb 6, 2026 • Age: 12 hours

Current Status

Altitude 561.1 km
Velocity 7.59 km/s
Sub-Earth Point 37.38°N, 167.68°W
Launch Date Jun 23, 2023
Age 2.6 years
Type internet

Technical Details

Classification Payload
Mass 305.00 kg
Dry Mass 290.00 kg
Total Mass 305.00 kg
Length 0.20 m
Diameter 2.80 m
Span 9.00 m
Shape Box + pan
Manufacturer SPXS
Bus Type Starlink
Phase Status In Orbit
Owner/State SPXS/US

Large Constellations

Loading constellations...